User: anonymous   Login
Location: Taipo
(41.0000°S, 175.9500°E)
Time: 21:05:38
(UTC+00:00)
Language:

Cosmos 2056 Rocket - Orbit

View from above orbital plane
View from above orbital plane
View from above satellite
View from above satellite

Ground track
Ground track

The orbit data is extracted from the following two-line orbital elements,

1 20433U 90004B   24165.59298587  .00000432  00000-0  15385-3 0  9990
2 20433  74.0367 347.0922 0041043 214.3833 207.2191 14.36793549801499
Epoch (UTC): 13 June 2024 14:13:53
Eccentricity: 0.0041043
inclination: 74.0367°
perigee height: 740 km
apogee height: 798 km
right ascension of ascending node: 347.0922°
argument of perigee: 214.3833°
revolutions per day: 14.36793549
mean anomaly at epoch: 207.2191°
orbit number at epoch: 80149

The dashed part of the orbit path shows where the satellite is in the earth's shadow,  

DLR